Vertical_Velocity
-4 -0 -2 -2 -1 -2 -0 1 0 -0 -0 -0 0 -2 -3 -2 -1 0 -1 0 -2 -0 1 -1 -1 -0 0 0 -0 3 1 1 1 2 2 3 1 3 -2 1 2 -1 2 2 6 5 -3
3 -2 0 -2 -1 -1 -1 -0 -0 -0 -0 0 1 -1 -1 -2 -1 -0 0 1 -1 -0 -1 -2 1 2 2 4 1 0 1 1 1 0 -1 2 5 8 0 1 4 9 5 4 5 5 5
-8 1 1 1 -0 -1 -0 -1 -0 0 -0 0 1 1 -1 -2 -1 -0 0 -0 -0 -1 -2 -1 -0 1 1 -0 2 -0 1 -1 2 2 2 2 1 0 4 -2 3 3 -2 2 6 1 -2
-2 -3 -3 0 -0 0 -0 -0 -1 -1 -1 0 -0 -0 -0 -1 -1 -1 -0 1 -0 -2 -1 -2 0 1 2 -1 1 -1 0 1 -2 -1 1 0 1 1 -1 4 -5 1 8 3 0 1 -4
-3 -4 -2 -3 1 -0 1 -0 -1 -1 -1 1 0 0 -0 -0 -2 0 -1 -1 -1 -2 -1 -0 -1 2 -1 -3 -1 -3 -6 -2 -2 0 -3 -2 -3 -2 -4 1 2 -6 -2 10 -1 11 11
1 0 -3 0 -1 0 -0 -0 -1 -1 -0 0 -1 -1 -1 -1 -1 -1 -0 -2 -1 2 0 -2 -1 2 3 -5 -3 1 3 -1 -7 -9 -2 -2 -5 3 9 3 6 2 -8 -9 7 -13 4
-2 -4 -2 -2 -1 -0 -1 -0 -2 -0 -0 -1 -3 -1 -0 0 -1 -1 -1 -3 -4 -6 5 2 -2 -4 -2 4 -8 -10 -7 1 4 5 -6 -1 8 0 4 1 4 6 7 7 1 2 1
0 0 -3 0 -4 1 -2 -1 -2 -1 -2 -0 -1 -2 1 -2 2 -3 -4 1 2 3 -5 -2 -2 -1 1 -2 4 4 1 -4 -10 -9 -5 -9 1 4 4 1 -5 -3 2 -5 -0 2 9
1 -1 -4 -0 -4 -0 -0 -2 -1 -0 -1 -2 -0 -1 -0 -0 -6 3 -2 -3 -3 -1 -1 -0 -1 -4 -1 -5 -5 -7 -6 -4 -9 -5 -6 -2 1 -1 -9 -9 -6 2 -2 -4 6 -3 1
2 4 -4 2 -3 -2 -1 -1 1 -1 -4 -1 -1 -1 0 -1 -1 -3 -4 -2 -2 -1 -1 -0 -2 2 -13 -4 -1 -4 -4 -13 -8 -3 -7 -4 -7 -3 -4 8 2 -9 3 1 -2 6 -3
-0 1 -3 -1 -0 -3 -1 -1 -0 -3 -3 -2 -1 -2 -1 -2 -4 -2 -2 -2 -2 -2 -5 -4 -2 3 -5 -9 -7 -3 -1 -2 -6 -1 -3 4 -2 -1 -7 -3 5 4 6 5 -2 0 12
-6 5 -1 -1 -2 -2 -1 -1 -2 -3 -1 -2 -2 -1 -3 -5 -0 -1 -2 -3 -1 -3 -8 -1 -1 -2 -7 -5 -1 -2 -7 -1 -3 -6 -1 -4 10 -3 4 0 7 3 -5 -18 -9 12 3
-1 0 -0 -1 1 -3 -2 -2 -2 -2 -1 -3 -3 -2 -0 -1 1 -1 -3 -4 -2 -8 -2 -3 -2 -3 -1 -8 -4 -5 2 -11 -13 -11 -15 -11 -17 -7 6 -19 -7 10 -2 -6 -6 -3 2
2 0 0 -6 -1 -0 -2 -2 -0 -2 -2 -3 -2 -2 -2 -0 -1 -2 -2 -5 -4 -2 -1 1 -2 2 -4 -4 -0 -9 -7 1 -10 -5 -2 -5 -20 -7 -6 23 17 -6 9 4 -0 0 -3
-5 5 -3 -4 2 -1 -1 -1 -2 -2 -2 -3 -2 -0 0 -1 -2 -4 -4 -1 -3 -3 -2 -2 1 -2 -3 -6 -2 -7 5 3 -2 -3 -9 -1 -10 -28 14 -3 2 -15 -1 4 10 2 4
3 4 -4 -0 4 -1 -1 2 -4 -2 -2 -2 -1 1 -0 -1 -1 -2 -2 -4 -1 -2 -1 -4 -4 -1 -4 -5 -4 -4 6 -3 1 2 4 0 -15 -1 -11 -1 10 -2 4 -7 -5 -4 -2
2 -8 -6 -0 3 -1 -1 0 -4 -1 -1 -3 -1 -2 -2 -2 -2 -4 -1 -4 -3 -2 -1 -2 -3 -1 -4 -4 0 -1 2 2 2 -5 -4 1 4 -22 -3 -6 -3 -4 -5 1 2 4 1
4 -7 -3 -1 -1 -0 -1 -1 -1 0 -3 -0 -2 -1 -2 -0 -2 -1 -3 -3 -3 1 -2 -3 -3 -3 -1 -3 -0 -2 -1 -3 -5 -4 -4 0 -1 -4 1 -1 -0 0 -4 0 -0 -6 0
-8 -2 2 3 -3 0 0 -2 -1 0 -1 -2 -2 -2 -2 -2 -3 -2 -3 -2 -1 -1 -3 -3 -4 -4 -2 -0 -1 -1 1 3 -2 1 -4 -3 1 -4 4 7 1 -3 -4 1 1 2 -0
-3 -1 -0 1 -2 -2 -2 -0 -0 -2 -2 -1 -2 -1 -3 -2 -1 -3 -3 -2 -1 -2 -2 -3 -3 -3 -2 2 -1 -1 -1 2 -2 -0 2 -0 -1 1 -0 0 1 -1 -1 -1 0 1 -0
4 1 -0 -1 2 -0 -2 0 -1 -1 -1 0 -1 -2 -1 -1 -2 -4 -2 -1 -0 -1 -3 -3 -3 -2 -3 -0 -2 -2 0 -1 -3 1 -3 -2 -1 -1 -1 2 1 -1 -1 -1 -2 -1 1
2 1 -4 -0 0 -2 -0 0 -1 -1 -0 -1 0 -1 -2 -2 -2 -3 -2 -0 -0 -2 -4 1 -2 -1 -0 1 -1 -1 0 -4 -5 2 -3 -3 -1 1 -1 2 0 0 0 -2 -0 -0 -1
4 -1 -4 1 -2 -2 1 -3 -1 -1 -1 -0 0 0 1 -1 -1 -1 -1 -1 -2 -2 -2 -1 -1 -0 -3 -1 -3 -1 0 -2 -2 0 -3 -1 -0 1 -0 -1 -1 -1 -2 -0 0 0 -2
2 -1 -2 -1 1 -0 1 -1 -2 -1 -0 -1 0 -1 0 -2 0 -0 -0 -1 -2 -2 -1 -1 -2 -1 -2 -2 -1 -2 -0 -2 -3 -0 -0 -1 -1 -1 0 0 -6 -3 -1 -0 -1 -2 -1
1 1 -2 -2 0 1 -1 -3 -1 -0 -0 -0 0 0 -0 -1 -1 -1 -0 -2 -3 -2 -0 -1 -1 0 -2 -1 -3 0 -0 -3 -2 2 -1 -3 -1 0 0 1 -3 -2 -3 -1 -2 -1 -1
-1 -1 2 0 1 0 -2 -3 0 -1 -0 0 -0 1 0 2 -1 -0 -1 -2 -1 -2 -1 -1 -2 -0 -3 0 -3 -1 -2 -1 0 -1 -2 -2 -1 -3 0 -0 -3 -0 -3 -2 -0 -2 -2
-0 2 4 0 2 -2 -3 -1 -1 -1 1 1 0 0 1 1 -1 -0 -0 -2 -2 -2 -1 -1 -1 -2 -1 -2 -0 -1 -2 -3 -1 -2 -1 1 -2 -2 -2 -1 -3 -1 -2 -2 -5 -7 -2
2 5 2 3 -0 -1 -4 -0 -1 -0 2 0 0 1 -0 -1 -0 -1 -1 -1 -2 -2 -1 -2 -0 -3 -2 -2 -0 -2 -1 -2 -2 -1 -2 -2 -1 -1 -1 -1 -7 -2 -1 -3 -3 -2 -2
2 4 3 0 -0 -4 -1 -3 1 0 2 1 1 -0 -0 -1 0 -1 -1 -2 -2 -1 -0 -2 -3 -3 -3 -2 -1 -0 -2 -2 0 -4 -1 -3 -3 -4 -6 -6 -1 -3 -1 -1 -1 -1 -2
Height
3124 3122 3121 3118 3116 3114 3111 3109 3107 3104 3102 3100 3098 3094 3091 3089 3086 3083 3081 3077 3074 3072 3069 3067 3064 3062 3059 3057 3055 3054 3053 3052 3051 3051 3051 3051 3050 3050 3046 3047 3048 3041 3041 3044 3046 3047 3047
3123 3121 3120 3117 3115 3113 3110 3108 3106 3103 3101 3098 3096 3093 3090 3087 3084 3081 3078 3074 3071 3068 3065 3063 3061 3058 3056 3053 3051 3048 3047 3047 3046 3045 3044 3044 3044 3044 3040 3040 3040 3037 3037 3036 3038 3039 3040
3122 3120 3118 3116 3113 3111 3109 3107 3104 3102 3099 3097 3094 3091 3088 3085 3082 3079 3075 3072 3068 3065 3062 3059 3057 3054 3051 3050 3046 3043 3042 3040 3039 3039 3040 3039 3038 3038 3037 3033 3034 3031 3025 3026 3030 3032 3032
3122 3120 3117 3114 3113 3109 3108 3105 3103 3101 3098 3095 3092 3089 3085 3082 3079 3075 3071 3068 3064 3061 3058 3054 3051 3050 3046 3042 3043 3041 3042 3040 3037 3036 3036 3035 3035 3034 3033 3031 3028 3027 3023 3019 3025 3028 3030
3120 3119 3116 3114 3111 3109 3107 3104 3101 3098 3096 3093 3090 3086 3083 3079 3076 3071 3068 3064 3061 3057 3054 3050 3047 3045 3043 3039 3043 3040 3036 3037 3036 3034 3033 3032 3032 3031 3031 3028 3025 3023 3017 3018 3015 3018 3019
3118 3117 3114 3112 3110 3107 3105 3103 3099 3097 3094 3091 3087 3084 3081 3077 3072 3068 3064 3060 3056 3053 3050 3046 3043 3044 3042 3036 3038 3039 3036 3032 3031 3030 3032 3028 3028 3028 3027 3025 3023 3019 3017 3015 3014 3012 3012
3116 3115 3113 3110 3109 3107 3103 3100 3097 3095 3092 3089 3085 3082 3078 3074 3069 3065 3060 3056 3054 3050 3048 3044 3041 3040 3040 3037 3032 3030 3034 3031 3025 3024 3023 3025 3026 3023 3023 3023 3021 3018 3016 3014 3011 3011 3009
3114 3113 3111 3109 3106 3105 3102 3099 3096 3093 3090 3086 3083 3078 3074 3071 3067 3062 3057 3053 3049 3048 3042 3040 3039 3038 3037 3034 3034 3029 3025 3022 3020 3017 3018 3020 3021 3022 3021 3018 3016 3015 3012 3010 3008 3008 3008
3111 3111 3109 3108 3105 3102 3100 3097 3094 3090 3086 3084 3080 3076 3071 3067 3063 3060 3054 3049 3044 3041 3040 3040 3039 3038 3041 3034 3028 3025 3022 3019 3019 3016 3016 3017 3020 3019 3017 3014 3011 3010 3009 3007 3005 3002 3002
3108 3108 3105 3105 3103 3100 3097 3094 3091 3087 3084 3081 3077 3073 3069 3064 3061 3055 3051 3047 3043 3039 3036 3041 3038 3034 3031 3033 3032 3028 3022 3021 3020 3018 3017 3019 3019 3016 3014 3013 3011 3009 3008 3005 3000 2997 2996
3106 3105 3102 3102 3100 3097 3095 3092 3088 3085 3081 3077 3073 3069 3064 3059 3056 3053 3050 3044 3040 3038 3040 3043 3040 3038 3032 3033 3033 3028 3024 3021 3020 3020 3020 3021 3017 3015 3014 3012 3011 3007 3004 3000 2995 2991 2988
3102 3103 3100 3099 3097 3094 3092 3088 3085 3082 3077 3073 3068 3065 3060 3056 3052 3049 3046 3042 3039 3040 3043 3043 3040 3038 3034 3033 3031 3028 3022 3022 3020 3021 3019 3018 3018 3016 3014 3010 3008 3004 2999 2993 2988 2983 2983
3098 3099 3095 3095 3092 3091 3088 3085 3082 3078 3074 3069 3065 3061 3057 3052 3049 3045 3043 3041 3040 3038 3045 3043 3040 3037 3034 3032 3030 3027 3024 3018 3020 3016 3015 3015 3016 3016 3012 3004 3001 2999 2996 2992 2988 2981 2981
3094 3094 3093 3093 3089 3087 3085 3081 3078 3074 3070 3066 3061 3057 3052 3049 3045 3042 3041 3039 3038 3043 3041 3040 3039 3037 3036 3032 3031 3028 3026 3022 3021 3021 3018 3014 3010 3011 3010 3007 3003 2998 2997 2995 2992 2983 2980
3089 3090 3088 3089 3086 3083 3081 3078 3074 3070 3067 3062 3058 3055 3050 3046 3044 3041 3040 3038 3039 3040 3040 3039 3038 3036 3036 3034 3033 3029 3026 3024 3022 3020 3021 3015 3012 3009 3007 3003 3001 2996 2994 2992 2984 2982 2979
3083 3084 3083 3082 3081 3079 3077 3074 3070 3067 3062 3058 3055 3052 3048 3044 3042 3040 3038 3037 3036 3037 3036 3036 3036 3037 3034 3032 3031 3028 3027 3025 3024 3023 3021 3018 3008 3006 3003 3000 3000 2996 2994 2991 2989 2990 2985
3077 3078 3079 3078 3076 3075 3073 3070 3066 3063 3058 3053 3050 3047 3045 3042 3039 3038 3036 3034 3034 3034 3035 3035 3035 3034 3033 3032 3029 3028 3027 3024 3022 3020 3018 3014 3012 3006 3002 2999 2996 2995 2993 2992 2989 2986 2982
3071 3073 3073 3073 3071 3070 3068 3065 3062 3059 3053 3050 3046 3044 3042 3039 3039 3036 3033 3033 3033 3032 3032 3032 3032 3031 3031 3030 3027 3027 3025 3023 3020 3018 3013 3011 3008 3005 3002 2998 2997 2995 2993 2991 2990 2987 2984
3065 3067 3067 3068 3066 3064 3063 3060 3057 3054 3050 3046 3043 3040 3038 3037 3035 3033 3031 3031 3030 3029 3030 3029 3029 3029 3030 3028 3027 3024 3024 3022 3019 3017 3011 3010 3008 3005 3001 3001 2996 2993 2992 2991 2988 2986 2983
3058 3060 3062 3062 3061 3059 3057 3055 3052 3049 3045 3043 3040 3037 3034 3032 3031 3030 3029 3028 3028 3027 3027 3027 3026 3026 3026 3025 3023 3022 3020 3019 3015 3013 3011 3009 3007 3006 3004 3001 2998 2993 2991 2989 2988 2985 2981
3052 3054 3055 3056 3055 3053 3052 3050 3047 3044 3040 3039 3036 3034 3032 3029 3028 3028 3027 3026 3026 3025 3026 3024 3024 3023 3022 3021 3020 3019 3017 3016 3013 3010 3008 3006 3004 3001 2999 2996 2993 2991 2989 2986 2984 2983 2980
3045 3048 3049 3050 3049 3048 3046 3044 3041 3038 3036 3035 3033 3032 3029 3027 3026 3025 3025 3024 3024 3023 3024 3023 3021 3020 3019 3017 3016 3015 3013 3010 3011 3009 3005 3002 3001 2996 2993 2992 2991 2989 2988 2985 2982 2980 2976
3039 3040 3043 3044 3042 3042 3040 3038 3036 3034 3032 3030 3029 3027 3026 3025 3024 3023 3023 3021 3021 3020 3021 3020 3019 3018 3016 3015 3013 3012 3010 3009 3008 3005 3003 3000 2997 2993 2992 2991 2989 2988 2987 2984 2980 2977 2974
3033 3035 3037 3037 3036 3035 3033 3032 3031 3029 3028 3026 3025 3024 3023 3022 3021 3020 3019 3019 3018 3018 3018 3016 3016 3015 3016 3013 3011 3010 3008 3006 3005 3004 3002 2998 2995 2993 2993 2992 2995 2988 2986 2981 2977 2974 2972
3027 3029 3030 3030 3030 3028 3026 3026 3026 3024 3023 3022 3021 3020 3019 3018 3018 3017 3015 3015 3016 3016 3015 3014 3013 3013 3012 3011 3010 3008 3006 3005 3003 3001 2999 2997 2995 2993 2993 2991 2989 2987 2984 2980 2977 2976 2972
3021 3023 3024 3023 3023 3020 3019 3020 3020 3019 3018 3017 3016 3016 3015 3015 3014 3014 3012 3013 3013 3012 3012 3011 3011 3010 3010 3009 3007 3005 3004 3002 3001 2999 2998 2995 2994 2994 2991 2990 2990 2985 2982 2979 2975 2974 2971
3015 3017 3017 3017 3015 3013 3014 3016 3015 3014 3014 3014 3013 3012 3012 3011 3010 3010 3009 3009 3009 3009 3009 3008 3008 3008 3007 3006 3005 3003 3001 3001 2999 2997 2997 2995 2992 2991 2989 2988 2985 2983 2981 2978 2977 2979 2971
3009 3010 3010 3010 3008 3007 3009 3011 3010 3010 3010 3010 3009 3008 3009 3007 3007 3007 3006 3006 3005 3005 3005 3005 3006 3004 3004 3003 3002 3001 2999 2999 2997 2995 2994 2993 2991 2989 2988 2987 2985 2982 2979 2979 2976 2972 2969
3003 3003 3003 3002 3001 3002 3005 3006 3005 3005 3005 3005 3006 3005 3005 3004 3004 3004 3002 3002 3002 3002 3002 3000 3001 3000 3000 3000 2999 2998 2997 2996 2994 2993 2991 2990 2990 2989 2988 2984 2981 2979 2976 2974 2972 2970 2967